Location: Nitra
(0.0000°N, 18.0833°E)
Time: 22:59:59
(UTC+02:00)

Hubble Space Telescope - Pass Details

Date: 09 February 2023
Orbit: 527 x 530 km, 28.5° (Epoch: 28 March)

Event Time Altitude Azimuth Distance (km) Brightness Sun altitude
Exits shadow 04:41:46 39° 336° (NNW) 793 1.3 -19.3°
Maximum altitude 04:42:56 55° 30° (NNE) 631 1.1 -19.1°
Drops below altitude 10° 04:46:56 10° 109° (ESE) 1,766 4.7 -18.1°
Sets 04:49:13 0° 113° (ESE) 2,658 6.0 -17.5°
